| time (UTC) | temp C | wind direction | speed KPH | gust KPH | rain 1hr cm | rain 24hr cm | rain mn cm | humidity % | barometer mb |
| 20260505122132 | 7 | 171 | 0.0 | 1.6 | 0.00 | 0.00 | 0.00 | 95 | 1018.1 |
| 20260505122127 | 7 | 171 | 0.0 | 3.2 | 0.00 | 0.00 | 0.00 | 95 | 1018.0 |
| 20260505121628 | 6 | 171 | 0.0 | 3.2 | 0.00 | 0.00 | 0.00 | 95 | 1017.9 |
| 20260505120634 | 6 | 171 | 0.0 | 3.2 | 0.00 | 0.00 | 0.00 | 95 | 1017.8 |
| 20260505120132 | 6 | 171 | 0.0 | 3.2 | 0.00 | 0.00 | 0.00 | 95 | 1017.8 |
| 20260505115402 | 6 | 171 | 1.6 | 6.4 | 0.00 | 0.00 | 0.00 | 94 | 1017.7 |
| 20260505114901 | 6 | 171 | 1.6 | 6.4 | 0.00 | 0.00 | 0.00 | 94 | 1017.7 |
| 20260505114402 | 6 | 161 | 1.6 | 6.4 | 0.00 | 0.00 | 0.00 | 94 | 1017.6 |
| 20260505113901 | 6 | 163 | 1.6 | 6.4 | 0.00 | 0.00 | 0.00 | 93 | 1017.6 |
| 20260505113402 | 6 | 163 | 1.6 | 6.4 | 0.00 | 0.00 | 0.00 | 93 | 1017.4 |
| 20260505112901 | 6 | 163 | 0.0 | 3.2 | 0.00 | 0.00 | 0.00 | 92 | 1017.5 |
| 20260505112402 | 7 | 163 | 0.0 | 3.2 | 0.00 | 0.00 | 0.00 | 93 | 1017.4 |
| 20260505111901 | 7 | 163 | 0.0 | 3.2 | 0.00 | 0.00 | 0.00 | 93 | 1017.2 |
| 20260505111402 | 7 | 163 | 0.0 | 1.6 | 0.00 | 0.00 | 0.00 | 93 | 1017.2 |
| 20260505110901 | 7 | 163 | 0.0 | 3.2 | 0.00 | 0.00 | 0.00 | 93 | 1017.2 |
| 20260505110634 | 7 | 163 | 0.0 | 3.2 | 0.00 | 0.00 | 0.00 | 93 | 1017.3 |
| 20260505101901 | 7 | 162 | 0.0 | 3.2 | 0.00 | 0.00 | 0.00 | 91 | 1017.0 |
| 20260505101401 | 7 | 162 | 1.6 | 3.2 | 0.00 | 0.00 | 0.00 | 91 | 1017.1 |
| 20260505100900 | 7 | 162 | 1.6 | 3.2 | 0.00 | 0.00 | 0.00 | 91 | 1017.1 |
| 20260505100400 | 7 | 162 | 0.0 | 3.2 | 0.00 | 0.00 | 0.00 | 91 | 1017.2 |
| 20260505095901 | 7 | 162 | 1.6 | 3.2 | 0.00 | 0.00 | 0.00 | 91 | 1017.2 |
| 20260505095409 | 7 | 162 | 0.0 | 3.2 | 0.00 | 0.00 | 0.00 | 92 | 1017.3 |
| 20260505095401 | 7 | 162 | 0.0 | 3.2 | 0.00 | 0.00 | 0.00 | 92 | 1017.3 |
| 20260505094632 | 7 | 162 | 1.6 | 3.2 | 0.00 | 0.00 | 0.00 | 93 | 1017.4 |
| 20260505093901 | 7 | 162 | 1.6 | 3.2 | 0.00 | 0.00 | 0.00 | 93 | 1017.3 |
| 20260505093401 | 7 | 162 | 1.6 | 3.2 | 0.00 | 0.00 | 0.00 | 93 | 1017.3 |
| 20260505092901 | 7 | 162 | 1.6 | 1.6 | 0.00 | 0.00 | 0.00 | 93 | 1017.3 |
| 20260505092401 | 7 | 162 | 1.6 | 3.2 | 0.00 | 0.00 | 0.00 | 92 | 1017.3 |
| 20260505091901 | 7 | 162 | 1.6 | 6.4 | 0.00 | 0.00 | 0.00 | 92 | 1017.3 |
| 20260505091401 | 7 | 162 | 1.6 | 6.4 | 0.00 | 0.00 | 0.00 | 91 | 1017.3 |
| 20260505090901 | 7 | 156 | 1.6 | 3.2 | 0.00 | 0.00 | 0.00 | 90 | 1017.2 |
| 20260505090401 | 7 | 156 | 1.6 | 3.2 | 0.00 | 0.00 | 0.00 | 90 | 1017.2 |
| 20260505085901 | 8 | 156 | 0.0 | 3.2 | 0.00 | 0.00 | 0.00 | 89 | 1017.2 |
| 20260505085401 | 8 | 156 | 1.6 | 3.2 | 0.00 | 0.00 | 0.00 | 88 | 1017.3 |
| 20260505085132 | 8 | 156 | 0.0 | 3.2 | 0.00 | 0.00 | 0.00 | 87 | 1017.2 |
| 20260505084355 | 9 | 156 | 0.0 | 1.6 | 0.00 | 0.00 | 0.00 | 86 | 1017.2 |
| 20260505083830 | 9 | 156 | 0.0 | 3.2 | 0.00 | 0.00 | 0.00 | 86 | 1017.1 |
| 20260505083331 | 9 | 156 | 0.0 | 3.2 | 0.00 | 0.00 | 0.00 | 86 | 1017.1 |
| 20260505082830 | 9 | 156 | 0.0 | 3.2 | 0.00 | 0.00 | 0.00 | 86 | 1017.2 |
| 20260505082330 | 9 | 156 | 0.0 | 1.6 | 0.00 | 0.00 | 0.00 | 87 | 1017.2 |
| 20260505081828 | 8 | 156 | 0.0 | 1.6 | 0.00 | 0.00 | 0.00 | 88 | 1017.2 |
| 20260505081330 | 8 | 156 | 0.0 | 1.6 | 0.00 | 0.00 | 0.00 | 88 | 1017.3 |
| 20260505080829 | 8 | 156 | 0.0 | 1.6 | 0.00 | 0.00 | 0.00 | 88 | 1017.2 |
| 20260505080330 | 8 | 156 | 0.0 | 1.6 | 0.00 | 0.00 | 0.00 | 89 | 1017.1 |
| 20260505075828 | 8 | 156 | 0.0 | 3.2 | 0.00 | 0.00 | 0.00 | 88 | 1017.1 |
| 20260505075329 | 8 | 156 | 0.0 | 3.2 | 0.00 | 0.00 | 0.00 | 87 | 1017.2 |
| 20260505074829 | 8 | 156 | 0.0 | 3.2 | 0.00 | 0.00 | 0.00 | 87 | 1017.1 |
| 20260505074329 | 8 | 156 | 0.0 | 1.6 | 0.00 | 0.00 | 0.00 | 86 | 1017.1 |
| 20260505073829 | 8 | 156 | 0.0 | 1.6 | 0.00 | 0.00 | 0.00 | 86 | 1017.0 |
| 20260505073100 | 9 | 156 | 0.0 | 3.2 | 0.00 | 0.00 | 0.00 | 84 | 1016.9 |
| 20260505072601 | 9 | 156 | 0.0 | 3.2 | 0.00 | 0.00 | 0.00 | 83 | 1017.0 |
| 20260505071828 | 10 | 156 | 1.6 | 3.2 | 0.00 | 0.00 | 0.00 | 82 | 1017.0 |
| 20260505071330 | 10 | 155 | 1.6 | 3.2 | 0.00 | 0.00 | 0.00 | 81 | 1017.0 |
| 20260505070828 | 10 | 155 | 0.0 | 3.2 | 0.00 | 0.00 | 0.00 | 81 | 1017.1 |
| 20260505070329 | 10 | 155 | 0.0 | 3.2 | 0.00 | 0.00 | 0.00 | 79 | 1017.1 |
| 20260505065830 | 10 | 155 | 0.0 | 1.6 | 0.00 | 0.00 | 0.00 | 79 | 1017.1 |
| 20260505065329 | 11 | 155 | 0.0 | 3.2 | 0.00 | 0.00 | 0.00 | 78 | 1017.0 |
| 20260505064829 | 11 | 155 | 0.0 | 3.2 | 0.00 | 0.00 | 0.00 | 77 | 1017.0 |
| 20260505064329 | 11 | 155 | 0.0 | 3.2 | 0.00 | 0.00 | 0.00 | 77 | 1017.0 |
| 20260505063828 | 11 | 155 | 0.0 | 1.6 | 0.00 | 0.00 | 0.00 | 78 | 1017.1 |
| 20260505063329 | 11 | 155 | 0.0 | 3.2 | 0.00 | 0.00 | 0.00 | 77 | 1017.1 |
| 20260505062830 | 11 | 155 | 1.6 | 4.8 | 0.00 | 0.00 | 0.00 | 79 | 1017.1 |
| 20260505062329 | 11 | 155 | 1.6 | 4.8 | 0.00 | 0.00 | 0.00 | 79 | 1017.2 |
| 20260505061829 | 10 | 155 | 0.0 | 3.2 | 0.00 | 0.00 | 0.00 | 80 | 1017.2 |
| 20260505061328 | 10 | 155 | 0.0 | 1.6 | 0.00 | 0.00 | 0.00 | 80 | 1017.3 |
| 20260505060829 | 10 | 155 | 0.0 | 3.2 | 0.00 | 0.00 | 0.00 | 80 | 1017.2 |
| 20260505060329 | 10 | 155 | 0.0 | 3.2 | 0.00 | 0.00 | 0.00 | 80 | 1017.3 |
| 20260505055829 | 10 | 155 | 0.0 | 3.2 | 0.00 | 0.00 | 0.00 | 80 | 1017.4 |
| 20260505055328 | 11 | 155 | 0.0 | 3.2 | 0.00 | 0.00 | 0.00 | 79 | 1017.3 |
| 20260505054830 | 11 | 155 | 1.6 | 4.8 | 0.00 | 0.00 | 0.00 | 76 | 1017.3 |
| 20260505054330 | 11 | 155 | 1.6 | 4.8 | 0.00 | 0.00 | 0.00 | 75 | 1017.3 |
| 20260505053830 | 12 | 119 | 0.0 | 3.2 | 0.00 | 0.00 | 0.00 | 74 | 1017.3 |
| 20260505053559 | 12 | 119 | 0.0 | 1.6 | 0.00 | 0.00 | 0.00 | 73 | 1017.3 |
| 20260505052830 | 12 | 119 | 0.0 | 1.6 | 0.00 | 0.00 | 0.00 | 72 | 1017.4 |
| 20260505052328 | 12 | 119 | 0.0 | 3.2 | 0.00 | 0.00 | 0.00 | 72 | 1017.4 |
| 20260505051829 | 12 | 119 | 0.0 | 3.2 | 0.00 | 0.00 | 0.00 | 70 | 1017.4 |
| 20260505051329 | 13 | 119 | 0.0 | 3.2 | 0.00 | 0.00 | 0.00 | 70 | 1017.2 |
| 20260505051103 | 13 | 119 | 1.6 | 3.2 | 0.00 | 0.00 | 0.00 | 70 | 1017.3 |
| 20260505050329 | 13 | 119 | 0.0 | 3.2 | 0.00 | 0.00 | 0.00 | 71 | 1017.3 |
| 20260505041328 | 15 | 121 | 1.6 | 9.7 | 0.00 | 0.00 | 0.00 | 65 | 1017.3 |
| 20260505040817 | 15 | 119 | 1.6 | 9.7 | 0.00 | 0.00 | 0.00 | 65 | 1017.4 |
| 20260505040318 | 14 | 108 | 1.6 | 6.4 | 0.00 | 0.00 | 0.00 | 68 | 1017.4 |
| 20260505035808 | 14 | 152 | 1.6 | 3.2 | 0.00 | 0.00 | 0.00 | 67 | 1017.3 |
| 20260505035306 | 14 | 163 | 1.6 | 3.2 | 0.00 | 0.00 | 0.00 | 68 | 1017.4 |
| 20260505035033 | 14 | 163 | 1.6 | 3.2 | 0.00 | 0.00 | 0.00 | 69 | 1017.4 |
| 20260505034303 | 14 | 116 | 1.6 | 3.2 | 0.00 | 0.00 | 0.00 | 69 | 1017.5 |
| 20260505033803 | 14 | 116 | 0.0 | 3.2 | 0.00 | 0.00 | 0.00 | 69 | 1017.6 |
| 20260505033301 | 14 | 116 | 1.6 | 4.8 | 0.00 | 0.00 | 0.00 | 70 | 1017.7 |
| 20260505032804 | 14 | 116 | 1.6 | 4.8 | 0.00 | 0.00 | 0.00 | 70 | 1017.7 |
| 20260505032301 | 13 | 352 | 0.0 | 3.2 | 0.00 | 0.00 | 0.00 | 70 | 1017.7 |
| 20260505031802 | 13 | 352 | 0.0 | 1.6 | 0.00 | 0.00 | 0.00 | 69 | 1017.8 |
| 20260505031302 | 14 | 352 | 0.0 | 1.6 | 0.00 | 0.00 | 0.00 | 69 | 1017.8 |
| 20260505030803 | 14 | 351 | 0.0 | 3.2 | 0.00 | 0.00 | 0.00 | 69 | 1017.8 |
| 20260505030532 | 14 | 351 | 0.0 | 3.2 | 0.00 | 0.00 | 0.00 | 69 | 1017.8 |
| 20260505025804 | 15 | 73 | 0.0 | 0.0 | 0.00 | 0.00 | 0.00 | 69 | 1017.8 |
| 20260505025532 | 15 | 73 | 0.0 | 0.0 | 0.00 | 0.00 | 0.00 | 68 | 1017.8 |
| 20260505024802 | 15 | 73 | 0.0 | 1.6 | 0.00 | 0.00 | 0.00 | 68 | 1017.7 |
| 20260505024533 | 15 | 73 | 1.6 | 3.2 | 0.00 | 0.00 | 0.00 | 66 | 1017.9 |
| 20260505024032 | 15 | 73 | 1.6 | 3.2 | 0.00 | 0.00 | 0.00 | 67 | 1017.9 |
| 20260505023301 | 15 | 73 | 1.6 | 3.2 | 0.00 | 0.00 | 0.00 | 65 | 1017.8 |
| 20260505022804 | 15 | 73 | 1.6 | 3.2 | 0.00 | 0.00 | 0.00 | 66 | 1017.7 |
| 20260505022533 | 15 | 73 | 1.6 | 3.2 | 0.00 | 0.00 | 0.00 | 66 | 1017.7 |
| 20260505021802 | 15 | 73 | 1.6 | 1.6 | 0.00 | 0.00 | 0.00 | 66 | 1017.7 |
| 20260505021538 | 15 | 73 | 1.6 | 3.2 | 0.00 | 0.00 | 0.00 | 67 | 1017.6 |
| 20260505020803 | 15 | 73 | 1.6 | 3.2 | 0.00 | 0.00 | 0.00 | 66 | 1017.6 |
| 20260505020532 | 15 | 73 | 1.6 | 3.2 | 0.00 | 0.00 | 0.00 | 66 | 1017.6 |
| 20260505015809 | 15 | 73 | 1.6 | 3.2 | 0.00 | 0.00 | 0.00 | 67 | 1017.6 |
| 20260505015301 | 15 | 73 | 0.0 | 1.6 | 0.00 | 0.00 | 0.00 | 67 | 1017.5 |
| 20260505014801 | 15 | 73 | 0.0 | 1.6 | 0.00 | 0.00 | 0.00 | 66 | 1017.4 |
| 20260505014307 | 15 | 73 | 1.6 | 3.2 | 0.00 | 0.00 | 0.00 | 65 | 1017.4 |
| 20260505013803 | 16 | 73 | 1.6 | 3.2 | 0.00 | 0.00 | 0.00 | 65 | 1017.3 |
| 20260505013301 | 16 | 73 | 1.6 | 1.6 | 0.00 | 0.00 | 0.00 | 64 | 1017.2 |
| 20260505013041 | 16 | 73 | 1.6 | 1.6 | 0.00 | 0.00 | 0.00 | 64 | 1017.2 |
| 20260505012301 | 16 | 73 | 1.6 | 3.2 | 0.00 | 0.00 | 0.00 | 63 | 1017.1 |
| 20260505011802 | 16 | 73 | 1.6 | 3.2 | 0.00 | 0.00 | 0.00 | 63 | 1017.1 |
| 20260505011303 | 16 | 73 | 1.6 | 3.2 | 0.00 | 0.00 | 0.00 | 63 | 1017.2 |
| 20260505010802 | 16 | 73 | 1.6 | 3.2 | 0.00 | 0.00 | 0.00 | 62 | 1017.1 |
| 20260505010300 | 16 | 73 | 1.6 | 3.2 | 0.00 | 0.00 | 0.00 | 62 | 1017.1 |
| 20260505005810 | 17 | 73 | 1.6 | 3.2 | 0.00 | 0.00 | 0.00 | 62 | 1017.0 |
| 20260505005303 | 17 | 73 | 1.6 | 3.2 | 0.00 | 0.00 | 0.00 | 61 | 1016.9 |
| 20260505004803 | 17 | 78 | 1.6 | 3.2 | 0.00 | 0.00 | 0.00 | 61 | 1016.9 |
| 20260505004305 | 17 | 78 | 1.6 | 9.7 | 0.00 | 0.00 | 0.00 | 60 | 1016.7 |
| 20260505004033 | 18 | 105 | 1.6 | 9.7 | 0.00 | 0.00 | 0.00 | 60 | 1016.7 |
| 20260505003300 | 18 | 131 | 1.6 | 6.4 | 0.00 | 0.00 | 0.00 | 59 | 1016.7 |
| 20260505003050 | 18 | 86 | 1.6 | 4.8 | 0.00 | 0.00 | 0.00 | 59 | 1016.6 |
| 20260505002305 | 18 | 88 | 1.6 | 6.4 | 0.00 | 0.00 | 0.00 | 58 | 1016.5 |
| 20260505002300 | 18 | 87 | 1.6 | 6.4 | 0.00 | 0.00 | 0.00 | 60 | 1016.6 |
| 20260505001253 | 18 | 64 | 1.6 | 9.7 | 0.00 | 0.00 | 0.00 | 56 | 1016.4 |
| 20260505000753 | 19 | 128 | 1.6 | 9.7 | 0.00 | 0.00 | 0.00 | 58 | 1016.4 |
| 20260505000253 | 19 | 88 | 1.6 | 9.7 | 0.00 | 0.00 | 0.00 | 57 | 1016.4 |
| 20260504235745 | 19 | 89 | 3.2 | 9.7 | 0.00 | 0.00 | 0.00 | 57 | 1016.3 |
| 20260504235243 | 19 | 165 | 1.6 | 8.0 | 0.00 | 0.00 | 0.00 | 57 | 1016.2 |
| 20260504235014 | 20 | 61 | 1.6 | 4.8 | 0.00 | 0.00 | 0.00 | 56 | 1016.2 |
| 20260504234518 | 20 | 107 | 1.6 | 4.8 | 0.00 | 0.00 | 0.00 | 53 | 1016.2 |
| 20260504233744 | 20 | 104 | 1.6 | 4.8 | 0.00 | 0.00 | 0.00 | 55 | 1016.1 |
| 20260504233252 | 20 | 100 | 1.6 | 6.4 | 0.00 | 0.00 | 0.00 | 53 | 1016.1 |
| 20260504233243 | 20 | 100 | 1.6 | 6.4 | 0.00 | 0.00 | 0.00 | 53 | 1016.1 |
| 20260504232238 | 20 | 342 | 1.6 | 6.4 | 0.00 | 0.00 | 0.00 | 54 | 1016.0 |
| 20260504231737 | 21 | 86 | 1.6 | 9.7 | 0.00 | 0.00 | 0.00 | 52 | 1016.0 |
| 20260504231513 | 21 | 94 | 3.2 | 11.3 | 0.00 | 0.00 | 0.00 | 52 | 1015.9 |
| 20260504231008 | 21 | 197 | 3.2 | 11.3 | 0.00 | 0.00 | 0.00 | 48 | 1015.9 |
| 20260504230237 | 22 | 315 | 3.2 | 12.9 | 0.00 | 0.00 | 0.00 | 46 | 1015.9 |
| 20260504230233 | 21 | 88 | 3.2 | 11.3 | 0.00 | 0.00 | 0.00 | 47 | 1015.9 |
| 20260504225229 | 22 | 234 | 3.2 | 12.9 | 0.00 | 0.00 | 0.00 | 47 | 1015.9 |
| 20260504224729 | 22 | 339 | 3.2 | 14.5 | 0.00 | 0.00 | 0.00 | 48 | 1015.9 |
| 20260504224503 | 22 | 350 | 3.2 | 14.5 | 0.00 | 0.00 | 0.00 | 49 | 1015.8 |
| 20260504224003 | 22 | 277 | 3.2 | 9.7 | 0.00 | 0.00 | 0.00 | 46 | 1015.8 |
| 20260504223228 | 22 | 285 | 4.8 | 11.3 | 0.00 | 0.00 | 0.00 | 46 | 1015.7 |
| 20260504222728 | 23 | 246 | 3.2 | 12.9 | 0.00 | 0.00 | 0.00 | 45 | 1015.8 |
| 20260504222228 | 22 | 46 | 4.8 | 14.5 | 0.00 | 0.00 | 0.00 | 47 | 1015.8 |
| 20260504221959 | 22 | 61 | 6.4 | 20.9 | 0.00 | 0.00 | 0.00 | 45 | 1015.8 |
| 20260504221503 | 22 | 166 | 4.8 | 20.9 | 0.00 | 0.00 | 0.00 | 44 | 1015.8 |
| 20260504220959 | 23 | 207 | 4.8 | 16.1 | 0.00 | 0.00 | 0.00 | 42 | 1015.7 |
| 20260504220502 | 23 | 51 | 4.8 | 17.7 | 0.00 | 0.00 | 0.00 | 44 | 1015.6 |
| 20260504215729 | 23 | 234 | 4.8 | 17.7 | 0.00 | 0.00 | 0.00 | 42 | 1015.7 |
| 20260504215229 | 23 | 144 | 4.8 | 14.5 | 0.00 | 0.00 | 0.00 | 41 | 1015.7 |
| 20260504214729 | 23 | 83 | 6.4 | 22.5 | 0.00 | 0.00 | 0.00 | 42 | 1015.7 |
| 20260504214229 | 23 | 197 | 6.4 | 22.5 | 0.00 | 0.00 | 0.00 | 41 | 1015.5 |
| 20260504213959 | 23 | 96 | 8.0 | 19.3 | 0.00 | 0.00 | 0.00 | 42 | 1015.6 |
| 20260504213229 | 23 | 73 | 6.4 | 17.7 | 0.00 | 0.00 | 0.00 | 41 | 1015.5 |
| 20260504212729 | 23 | 32 | 4.8 | 17.7 | 0.00 | 0.00 | 0.00 | 40 | 1015.6 |
| 20260504212229 | 23 | 342 | 6.4 | 20.9 | 0.00 | 0.00 | 0.00 | 38 | 1015.6 |
| 20260504211736 | 24 | 86 | 3.2 | 11.3 | 0.00 | 0.00 | 0.00 | 34 | 1015.5 |
| 20260504211730 | 24 | 193 | 4.8 | 20.9 | 0.00 | 0.00 | 0.00 | 37 | 1015.5 |
| 20260504211004 | 25 | 155 | 3.2 | 11.3 | 0.00 | 0.00 | 0.00 | 33 | 1015.5 |
| 20260504210228 | 25 | 246 | 4.8 | 11.3 | 0.00 | 0.00 | 0.00 | 30 | 1015.5 |
| 20260504205728 | 25 | 109 | 4.8 | 22.5 | 0.00 | 0.00 | 0.00 | 29 | 1015.6 |
| 20260504205459 | 25 | 202 | 4.8 | 22.5 | 0.00 | 0.00 | 0.00 | 27 | 1015.5 |
| 20260504204729 | 25 | 251 | 4.8 | 20.9 | 0.00 | 0.00 | 0.00 | 26 | 1015.6 |
| 20260504204229 | 25 | 105 | 6.4 | 20.9 | 0.00 | 0.00 | 0.00 | 27 | 1015.6 |
| 20260504203729 | 25 | 125 | 6.4 | 16.1 | 0.00 | 0.00 | 0.00 | 28 | 1015.5 |
| 20260504203229 | 25 | 225 | 4.8 | 16.1 | 0.00 | 0.00 | 0.00 | 31 | 1015.5 |
| 20260504202729 | 25 | 196 | 4.8 | 17.7 | 0.00 | 0.00 | 0.00 | 31 | 1015.5 |
| 20260504202228 | 25 | 207 | 6.4 | 17.7 | 0.00 | 0.00 | 0.00 | 31 | 1015.5 |
| 20260504202000 | 25 | 110 | 4.8 | 16.1 | 0.00 | 0.00 | 0.00 | 31 | 1015.7 |
| 20260504201504 | 26 | 161 | 3.2 | 11.3 | 0.00 | 0.00 | 0.00 | 31 | 1015.8 |
| 20260504201001 | 25 | 219 | 3.2 | 11.3 | 0.00 | 0.00 | 0.00 | 30 | 1015.9 |
| 20260504200503 | 25 | 92 | 4.8 | 19.3 | 0.00 | 0.00 | 0.00 | 32 | 1015.9 |
| 20260504200009 | 25 | 156 | 4.8 | 19.3 | 0.00 | 0.00 | 0.00 | 31 | 1016.1 |
| 20260504200005 | 25 | 190 | 4.8 | 19.3 | 0.00 | 0.00 | 0.00 | 32 | 1016.0 |
| 20260504194730 | 25 | 84 | 4.8 | 19.3 | 0.00 | 0.00 | 0.00 | 32 | 1016.2 |
| 20260504194229 | 25 | 117 | 4.8 | 17.7 | 0.00 | 0.00 | 0.00 | 36 | 1016.2 |
| 20260504193729 | 24 | 154 | 6.4 | 14.5 | 0.00 | 0.00 | 0.00 | 34 | 1016.3 |
| 20260504193229 | 24 | 117 | 4.8 | 12.9 | 0.00 | 0.00 | 0.00 | 35 | 1016.4 |
| 20260504192730 | 24 | 238 | 4.8 | 12.9 | 0.00 | 0.00 | 0.00 | 38 | 1016.5 |
| 20260504192229 | 23 | 104 | 4.8 | 12.9 | 0.00 | 0.00 | 0.00 | 36 | 1016.5 |
| 20260504191731 | 24 | 94 | 3.2 | 9.7 | 0.00 | 0.00 | 0.00 | 37 | 1016.7 |
| 20260504191229 | 23 | 235 | 4.8 | 17.7 | 0.00 | 0.00 | 0.00 | 40 | 1016.8 |
| 20260504190730 | 23 | 262 | 4.8 | 17.7 | 0.00 | 0.00 | 0.00 | 38 | 1016.9 |
| 20260504190229 | 23 | 89 | 4.8 | 14.5 | 0.00 | 0.00 | 0.00 | 44 | 1017.0 |
| 20260504190004 | 23 | 149 | 3.2 | 14.5 | 0.00 | 0.00 | 0.00 | 39 | 1017.1 |
| 20260504185229 | 23 | 188 | 3.2 | 16.1 | 0.00 | 0.00 | 0.00 | 42 | 1017.1 |
| 20260504184731 | 23 | 72 | 4.8 | 16.1 | 0.00 | 0.00 | 0.00 | 41 | 1017.3 |
| 20260504184229 | 23 | 242 | 3.2 | 9.7 | 0.00 | 0.00 | 0.00 | 42 | 1017.4 |
| 20260504183729 | 23 | 130 | 3.2 | 9.7 | 0.00 | 0.00 | 0.00 | 40 | 1017.5 |
| 20260504183229 | 22 | 209 | 4.8 | 11.3 | 0.00 | 0.00 | 0.00 | 41 | 1017.6 |
| 20260504182727 | 22 | 130 | 4.8 | 11.3 | 0.00 | 0.00 | 0.00 | 41 | 1017.7 |
| 20260504182457 | 22 | 171 | 4.8 | 11.3 | 0.00 | 0.00 | 0.00 | 43 | 1017.8 |
| 20260504181724 | 22 | 153 | 4.8 | 14.5 | 0.00 | 0.00 | 0.00 | 42 | 1017.9 |
| 20260504181509 | 22 | 114 | 3.2 | 14.5 | 0.00 | 0.00 | 0.00 | 41 | 1017.9 |
| 20260504180724 | 22 | 112 | 3.2 | 9.7 | 0.00 | 0.00 | 0.00 | 40 | 1017.9 |
| 20260504180218 | 22 | 125 | 3.2 | 9.7 | 0.00 | 0.00 | 0.00 | 43 | 1017.9 |
| 20260504175717 | 23 | 269 | 3.2 | 12.9 | 0.00 | 0.00 | 0.00 | 41 | 1018.0 |
| 20260504175213 | 22 | 235 | 4.8 | 12.9 | 0.00 | 0.00 | 0.00 | 42 | 1018.2 |
| 20260504174713 | 22 | 204 | 3.2 | 8.0 | 0.00 | 0.00 | 0.00 | 44 | 1018.1 |
| 20260504174217 | 22 | 246 | 3.2 | 11.3 | 0.00 | 0.00 | 0.00 | 38 | 1018.3 |
| 20260504174213 | 22 | 248 | 4.8 | 11.3 | 0.00 | 0.00 | 0.00 | 41 | 1018.2 |
| 20260504173212 | 23 | 277 | 3.2 | 14.5 | 0.00 | 0.00 | 0.00 | 42 | 1018.3 |
| 20260504172943 | 22 | 220 | 4.8 | 14.5 | 0.00 | 0.00 | 0.00 | 42 | 1018.4 |
| 20260504172209 | 22 | 188 | 3.2 | 6.4 | 0.00 | 0.00 | 0.00 | 40 | 1018.4 |
| 20260504171710 | 22 | 136 | 3.2 | 12.9 | 0.00 | 0.00 | 0.00 | 41 | 1018.5 |
| 20260504171209 | 22 | 319 | 4.8 | 12.9 | 0.00 | 0.00 | 0.00 | 46 | 1018.7 |
| 20260504170709 | 21 | 202 | 4.8 | 11.3 | 0.00 | 0.00 | 0.00 | 47 | 1018.8 |
| 20260504170209 | 21 | 222 | 4.8 | 11.3 | 0.00 | 0.00 | 0.00 | 43 | 1018.8 |
| 20260504160436 | 19 | 63 | 3.2 | 12.9 | 0.00 | 0.00 | 0.00 | 51 | 1020.2 |
| 20260504150702 | 16 | 198 | 1.6 | 6.4 | 0.00 | 0.00 | 0.00 | 57 | 1021.0 |
| 20260504150202 | 15 | 229 | 1.6 | 6.4 | 0.00 | 0.00 | 0.00 | 57 | 1021.1 |
| 20260504141201 | 12 | 223 | 1.6 | 6.4 | 0.00 | 0.00 | 0.00 | 64 | 1021.7 |
| 20260504140932 | 12 | 232 | 1.6 | 6.4 | 0.00 | 0.00 | 0.00 | 66 | 1021.7 |
| 20260504140155 | 11 | 218 | 3.2 | 4.8 | 0.00 | 0.00 | 0.00 | 69 | 1021.7 |
| 20260504130629 | 6 | 271 | 0.0 | 1.6 | 0.00 | 0.00 | 0.00 | 88 | 1021.7 |
| 20260504130401 | 5 | 271 | 0.0 | 0.0 | 0.00 | 0.00 | 0.00 | 90 | 1021.6 |
| 20260504130348 | 5 | 271 | 0.0 | 0.0 | 0.00 | 0.00 | 0.00 | 91 | 1021.5 |